Flag for Philippines Weather past 2 weeks in Mabalacat, Philippines

Now
79 °F

Partly sunny.


Feels Like: 81 °F
Forecast: 70 / 85 °F
Wind: 6 mph from Southwest

Location: Clarkfield Pampanga International Airport

Current Time: Dec 20, 2014 at 10:05:01 AM

Latest Report: Dec 20, 2014 at 9:00 AM


Visibility: N/A

Pressure: 29.98 "Hg

Humidity: 70%

Dew point: 68 °F

Location of MabalacatLocation

Historic Weather in Mabalacat — Graph

°F

Mabalacat temperature yesterday

Maximum temperature yesterday: 82 °F (at 12:00 PM)
Minimum temperature yesterday: 70 °F (at 6:00 AM)
Average temperature yesterday: 76 °F

Past Weeks' High & Low Weather Summary

 TemperatureHumidityPressure
High90 °F (Dec 5, 1:00 PM)100% (Dec 6, 9:00 PM)30.09 "Hg (Dec 6, 9:00 PM)
Low70 °F (Dec 19, 6:00 AM)43% (Dec 7, 1:00 PM)29.71 "Hg (Dec 8, 2:00 PM)
Average78 °F78%29.92 "Hg
* Reported Dec 5 1:00 PM — Dec 20 9:00 AM, Mabalacat, Weather by CustomWeather, © 2014

Note: Actual official high and low records may vary slightly from our data, if they occured in-between our weather recording intervals... More about our weather records

Advertising

Mabalacat weather history for previous 24 hours

 ConditionsComfort  
Time TempWeatherWind HumidityBarometerVisibility
9:00 AM
Dec 20
79 °FPartly sunny.6 mph70%29.98 "HgN/A
8:00 AM79 °FPartly sunny.6 mph70%29.95 "HgN/A
7:00 AM73 °FPartly sunny.6 mph83%29.95 "HgN/A
6:00 AM73 °FPassing clouds.6 mph89%29.92 "HgN/A
5:00 AM73 °FPassing clouds.7 mph89%29.92 "HgN/A
4:00 AM73 °FPassing clouds.7 mph89%29.92 "HgN/A
3:00 AM73 °FPassing clouds.5 mph89%29.95 "HgN/A
2:00 AM73 °FPassing clouds.7 mph89%29.95 "HgN/A
1:00 AM72 °FPassing clouds.2 mph94%29.98 "HgN/A
12:00 AM75 °FPassing clouds.2 mph83%29.98 "HgN/A
11:00 PM
Dec 19
75 °FPassing clouds.7 mph83%30.01 "HgN/A
10:00 PM75 °FOvercast.5 mph83%30.01 "HgN/A
9:00 PM75 °FOvercast.5 mph83%30.01 "HgN/A
8:00 PM75 °FOvercast.5 mph89%30.01 "HgN/A
7:00 PM77 °FOvercast.2 mph79%29.98 "HgN/A
6:00 PM79 °FPassing clouds.5 mph74%29.98 "HgN/A
5:00 PM81 °FPartly sunny.5 mph62%29.95 "HgN/A
4:00 PM82 °FPartly sunny.6 mph58%29.95 "HgN/A
3:00 PM82 °FPartly sunny.5 mph55%29.95 "HgN/A
2:00 PM82 °FPartly sunny.5 mph55%29.98 "HgN/A
1:00 PM82 °FPartly sunny.6 mph55%30.01 "HgN/A
12:00 PM82 °FPartly sunny.7 mph51%30.04 "HgN/A
11:00 AM81 °FPartly sunny.8 mph54%30.07 "HgN/A
10:00 AM77 °FPartly sunny.8 mph65%30.09 "HgN/A
Weather by CustomWeather, © 2014

See weather overviewHow to use our weather pages